TimeEST,TemperatureF,Dew PointF,Humidity,Sea Level PressureIn,VisibilityMPH,Wind Direction,Wind SpeedMPH,Gust SpeedMPH,PrecipitationIn,Events,Conditions,WindDirDegrees,DateUTC
12:53 AM,26.1,23.0,88,30.40,10.0,Calm,Calm,-,N/A,,Clear,0,2004-01-01 05:53:00
1:53 AM,27.0,23.0,85,30.40,10.0,Calm,Calm,-,N/A,,Clear,0,2004-01-01 06:53:00
2:53 AM,25.0,21.9,88,30.41,10.0,Calm,Calm,-,N/A,,Clear,0,2004-01-01 07:53:00
3:53 AM,24.1,21.9,91,30.42,10.0,Calm,Calm,-,N/A,,Clear,0,2004-01-01 08:53:00
4:53 AM,25.0,21.9,88,30.41,10.0,Calm,Calm,-,N/A,,Clear,0,2004-01-01 09:53:00
5:53 AM,24.1,21.0,88,30.44,10.0,Calm,Calm,-,N/A,,Clear,0,2004-01-01 10:53:00
6:53 AM,24.1,21.0,88,30.46,10.0,Calm,Calm,-,N/A,,Clear,0,2004-01-01 11:53:00
7:53 AM,24.1,21.0,88,30.48,10.0,Calm,Calm,-,N/A,,Partly Cloudy,0,2004-01-01 12:53:00
8:53 AM,25.0,23.0,92,30.51,10.0,Calm,Calm,-,N/A,,Partly Cloudy,0,2004-01-01 13:53:00
9:53 AM,32.0,27.0,82,30.51,10.0,Calm,Calm,-,N/A,,Partly Cloudy,0,2004-01-01 14:53:00
10:53 AM,37.9,30.0,73,30.49,10.0,Calm,Calm,-,N/A,,Partly Cloudy,0,2004-01-01 15:53:00
11:53 AM,44.1,30.9,60,30.44,10.0,NW,3.5,-,N/A,,Scattered Clouds,320,2004-01-01 16:53:00
12:53 PM,50.0,30.0,46,30.40,10.0,Calm,Calm,-,N/A,,Partly Cloudy,0,2004-01-01 17:53:00
1:53 PM,53.1,32.0,45,30.38,10.0,Calm,Calm,-,N/A,,Scattered Clouds,0,2004-01-01 18:53:00
2:53 PM,55.0,28.0,35,30.36,10.0,Calm,Calm,-,N/A,,Mostly Cloudy,0,2004-01-01 19:53:00
3:53 PM,54.0,27.0,35,30.36,10.0,WNW,4.6,-,N/A,,Mostly Cloudy,290,2004-01-01 20:53:00
4:53 PM,53.1,28.0,38,30.35,10.0,Calm,Calm,-,N/A,,Mostly Cloudy,0,2004-01-01 21:53:00
5:53 PM,48.9,30.9,50,30.34,10.0,Calm,Calm,-,N/A,,Overcast,0,2004-01-01 22:53:00
6:53 PM,50.0,30.0,46,30.35,10.0,Calm,Calm,-,N/A,,Overcast,0,2004-01-01 23:53:00
7:53 PM,46.9,32.0,56,30.35,10.0,SW,3.5,-,N/A,,Overcast,230,2004-01-02 00:53:00
8:53 PM,45.0,36.0,71,30.34,10.0,Calm,Calm,-,0.00,,Overcast,0,2004-01-02 01:53:00
9:53 PM,44.1,35.1,71,30.33,10.0,Calm,Calm,-,N/A,,Mostly Cloudy,0,2004-01-02 02:53:00
10:53 PM,41.0,34.0,76,30.32,10.0,Calm,Calm,-,N/A,,Mostly Cloudy,0,2004-01-02 03:53:00
11:53 PM,41.0,32.0,70,30.28,10.0,Calm,Calm,-,N/A,,Partly Cloudy,0,2004-01-02 04:53:00